Location: downtown San Diego
(32.7310°N, 117.1990°W)
Time: 23:08:13
(UTC-08:00)

Cosmos 44 Rocket - Pass Details

Date: 12 July 2018
Orbit: 636 x 754 km, 65.1° (Epoch: 15 November)

Event Time Altitude Azimuth Distance (km) Brightness Sun altitude
Rises 22:18:53 0° 224° (SW) 2,982 6.5 -24.0°
Reaches altitude 10° 22:21:16 10° 231° (SW) 2,090 5.8 -24.3°
Maximum altitude 22:25:45 42° 302° (WNW) 982 4.5 -24.9°
Drops below altitude 10° 22:30:26 10° 13° (NNE) 2,175 6.3 -25.5°
Sets 22:32:57 0° 21° (NNE) 3,117 7.1 -25.8°
